When you browse on this site, cookies collect data to enhance your experience and personalize the content and advertising you see.
Visit our Privacy Policy to learn more. By continuing to use the site, you agree to this use of cookies and data.
  • In Schweiz
  • Länderverzeichnis
  • Für 7 Tage
  • Wassertemperatur
  • Wetterkarte
  • Widgets
  • user-avatar
    Anmelden

    Stündliche Wetter Jalalabad

    Heute, 16 Oktober, Mittwoch

    Zeit Temperatur Niederschläge Wind Luftdruck Luftfeuchtigkeit
    00:00 +23°C° 0 mm 0 m/S 712 mmHg 36%
    01:00 +23°C° 0 mm 0 m/S 712 mmHg 38%
    02:00 +22°C° 0 mm 0 m/S 712 mmHg 41%
    03:00 +22°C° 0 mm 0 m/S 712 mmHg 42%
    04:00 +21°C° 0 mm 0 m/S 711 mmHg 43%
    05:00 +21°C° 0 mm 0 m/S 711 mmHg 45%
    06:00 +22°C° 0 mm 0 m/S 712 mmHg 42%
    07:00 +24°C° 0 mm 0 m/S 712 mmHg 39%
    08:00 +25°C° 0 mm 0 m/S 713 mmHg 36%
    09:00 +26°C° 0 mm 0 m/S 713 mmHg 34%
    10:00 +29°C° 0 mm 1 m/S 713 mmHg 32%
    11:00 +30°C° 0 mm 1 m/S 713 mmHg 30%
    12:00 +31°C° 0 mm 1 m/S 712 mmHg 29%
    13:00 +31°C° 0 mm 2 m/S 712 mmHg 27%
    14:00 +32°C° 0 mm 2 m/S 712 mmHg 25%
    15:00 +32°C° 0 mm 2 m/S 711 mmHg 27%
    16:00 +32°C° 0 mm 2 m/S 711 mmHg 28%
    17:00 +31°C° 0 mm 3 m/S 712 mmHg 30%
    18:00 +30°C° 0 mm 2 m/S 712 mmHg 35%
    19:00 +29°C° 0 mm 2 m/S 712 mmHg 40%
    20:00 +28°C° 0 mm 1 m/S 712 mmHg 45%
    21:00 +27°C° 0 mm 1 m/S 712 mmHg 46%
    22:00 +27°C° 0 mm 1 m/S 712 mmHg 47%
    23:00 +26°C° 0 mm 1 m/S 712 mmHg 49%

    Morgen, 17 Oktober, Donnerstag

    Zeit Temperatur Niederschläge Wind Luftdruck Luftfeuchtigkeit
    00:00 +26°C° 0 mm 1 m/S 712 mmHg 50%
    01:00 +23°C° 0 mm 0 m/S 712 mmHg 51%
    02:00 +23°C° 0 mm 0 m/S 712 mmHg 53%
    03:00 +22°C° 0 mm 0 m/S 711 mmHg 54%
    04:00 +22°C° 0 mm 0 m/S 711 mmHg 55%
    05:00 +22°C° 0 mm 0 m/S 711 mmHg 56%
    06:00 +23°C° 0 mm 0 m/S 712 mmHg 52%
    07:00 +23°C° 0 mm 0 m/S 712 mmHg 48%
    08:00 +24°C° 0 mm 0 m/S 712 mmHg 44%
    09:00 +27°C° 0 mm 1 m/S 712 mmHg 42%
    10:00 +28°C° 0 mm 1 m/S 712 mmHg 40%
    11:00 +29°C° 0 mm 1 m/S 712 mmHg 39%
    12:00 +30°C° 0 mm 1 m/S 712 mmHg 36%
    13:00 +31°C° 0 mm 2 m/S 711 mmHg 33%
    14:00 +31°C° 0 mm 2 m/S 711 mmHg 31%
    15:00 +31°C° 0.1 mm 3 m/S 711 mmHg 31%
    16:00 +31°C° 0.1 mm 3 m/S 711 mmHg 31%
    17:00 +31°C° 0.1 mm 3 m/S 711 mmHg 31%
    18:00 +29°C° 1.5 mm 3 m/S 711 mmHg 35%
    19:00 +27°C° 1.5 mm 2 m/S 711 mmHg 39%
    20:00 +26°C° 1.5 mm 1 m/S 711 mmHg 43%
    21:00 +26°C° 0 mm 1 m/S 712 mmHg 45%
    22:00 +26°C° 0 mm 1 m/S 712 mmHg 46%
    23:00 +25°C° 0 mm 1 m/S 712 mmHg 47%

    übermorgen, 18 Oktober, Freitag

    Zeit Temperatur Niederschläge Wind Luftdruck Luftfeuchtigkeit
    00:00 +25°C° 0 mm 1 m/S 712 mmHg 48%
    01:00 +24°C° 0 mm 1 m/S 712 mmHg 50%
    02:00 +24°C° 0 mm 1 m/S 712 mmHg 51%
    03:00 +23°C° 0.1 mm 1 m/S 712 mmHg 53%
    04:00 +23°C° 0.1 mm 1 m/S 711 mmHg 54%
    05:00 +21°C° 0.1 mm 0 m/S 711 mmHg 56%
    06:00 +21°C° 0.2 mm 0 m/S 712 mmHg 54%
    07:00 +21°C° 0.2 mm 0 m/S 712 mmHg 52%
    08:00 +21°C° 0.2 mm 0 m/S 712 mmHg 50%
    09:00 +22°C° 0 mm 0 m/S 713 mmHg 46%
    10:00 +25°C° 0 mm 1 m/S 713 mmHg 42%
    11:00 +27°C° 0 mm 1 m/S 713 mmHg 38%
    12:00 +27°C° 0 mm 1 m/S 713 mmHg 36%
    13:00 +28°C° 0 mm 1 m/S 712 mmHg 33%
    14:00 +29°C° 0 mm 2 m/S 712 mmHg 30%
    15:00 +29°C° 0 mm 1 m/S 712 mmHg 30%
    16:00 +28°C° 0 mm 1 m/S 712 mmHg 30%
    17:00 +28°C° 0 mm 1 m/S 712 mmHg 30%
    18:00 +26°C° 0 mm 0 m/S 712 mmHg 34%
    19:00 +25°C° 0 mm 0 m/S 712 mmHg 38%
    20:00 +24°C° 0 mm 0 m/S 712 mmHg 43%
    21:00 +23°C° 0 mm 0 m/S 712 mmHg 43%
    22:00 +23°C° 0 mm 0 m/S 712 mmHg 44%
    23:00 +23°C° 0 mm 0 m/S 712 mmHg 44%

    19 Oktober, Samstag

    Zeit Temperatur Niederschläge Wind Luftdruck Luftfeuchtigkeit
    00:00 +22°C° 0.1 mm 0 m/S 712 mmHg 45%
    01:00 +22°C° 0.1 mm 0 m/S 712 mmHg 45%
    02:00 +21°C° 0.1 mm 0 m/S 712 mmHg 46%
    03:00 +21°C° 0.3 mm 0 m/S 712 mmHg 47%
    04:00 +21°C° 0.3 mm 0 m/S 712 mmHg 49%
    05:00 +20°C° 0.3 mm 0 m/S 712 mmHg 50%
    06:00 +21°C° 0.1 mm 0 m/S 713 mmHg 46%
    07:00 +22°C° 0.1 mm 0 m/S 713 mmHg 42%
    08:00 +23°C° 0.1 mm 0 m/S 714 mmHg 38%
    09:00 +24°C° 0 mm 0 m/S 714 mmHg 36%
    10:00 +24°C° 0 mm 0 m/S 714 mmHg 34%
    11:00 +27°C° 0 mm 1 m/S 714 mmHg 32%
    12:00 +28°C° 0 mm 1 m/S 714 mmHg 31%
    13:00 +29°C° 0 mm 1 m/S 714 mmHg 29%
    14:00 +29°C° 0 mm 2 m/S 713 mmHg 28%
    15:00 +29°C° 0 mm 2 m/S 713 mmHg 29%
    16:00 +28°C° 0 mm 2 m/S 713 mmHg 30%
    17:00 +28°C° 0 mm 2 m/S 713 mmHg 32%
    18:00 +27°C° 0 mm 2 m/S 713 mmHg 35%
    19:00 +26°C° 0 mm 1 m/S 713 mmHg 39%
    20:00 +23°C° 0 mm 0 m/S 713 mmHg 43%
    21:00 +23°C° 0 mm 0 m/S 713 mmHg 44%
    22:00 +23°C° 0 mm 0 m/S 713 mmHg 45%
    23:00 +22°C° 0 mm 0 m/S 713 mmHg 46%

    20 Oktober, Sonntag

    Zeit Temperatur Niederschläge Wind Luftdruck Luftfeuchtigkeit
    00:00 +22°C° 0 mm 0 m/S 713 mmHg 46%
    01:00 +21°C° 0 mm 0 m/S 713 mmHg 47%
    02:00 +21°C° 0 mm 0 m/S 713 mmHg 47%
    03:00 +21°C° 0 mm 0 m/S 713 mmHg 47%
    04:00 +20°C° 0 mm 0 m/S 712 mmHg 47%
    05:00 +20°C° 0 mm 0 m/S 712 mmHg 47%
    06:00 +21°C° 0 mm 0 m/S 713 mmHg 43%
    07:00 +22°C° 0 mm 0 m/S 713 mmHg 39%
    08:00 +23°C° 0 mm 0 m/S 713 mmHg 35%
    09:00 +24°C° 0 mm 0 m/S 713 mmHg 33%
    10:00 +27°C° 0 mm 1 m/S 713 mmHg 31%
    11:00 +28°C° 0 mm 1 m/S 713 mmHg 28%
    12:00 +29°C° 0 mm 1 m/S 713 mmHg 27%
    13:00 +29°C° 0 mm 1 m/S 712 mmHg 25%
    14:00 +30°C° 0 mm 1 m/S 712 mmHg 24%
    15:00 +30°C° 0 mm 1 m/S 712 mmHg 25%
    16:00 +30°C° 0 mm 1 m/S 712 mmHg 25%
    17:00 +29°C° 0 mm 1 m/S 712 mmHg 26%
    18:00 +28°C° 0.1 mm 1 m/S 712 mmHg 30%
    19:00 +27°C° 0.1 mm 1 m/S 712 mmHg 34%
    20:00 +24°C° 0.1 mm 0 m/S 713 mmHg 39%
    21:00 +26°C° 0.4 mm 1 m/S 713 mmHg 39%
    22:00 +26°C° 0.4 mm 1 m/S 713 mmHg 40%
    23:00 +25°C° 0.4 mm 2 m/S 713 mmHg 40%

    21 Oktober, Montag

    Zeit Temperatur Niederschläge Wind Luftdruck Luftfeuchtigkeit
    00:00 +25°C° 0 mm 1 m/S 712 mmHg 41%
    01:00 +25°C° 0 mm 1 m/S 712 mmHg 43%
    02:00 +24°C° 0 mm 1 m/S 712 mmHg 44%
    03:00 +23°C° 0 mm 1 m/S 712 mmHg 45%
    04:00 +23°C° 0 mm 1 m/S 712 mmHg 45%
    05:00 +20°C° 0 mm 0 m/S 712 mmHg 46%
    06:00 +21°C° 0 mm 0 m/S 712 mmHg 42%
    07:00 +22°C° 0 mm 0 m/S 712 mmHg 38%
    08:00 +23°C° 0 mm 0 m/S 713 mmHg 34%
    09:00 +24°C° 0 mm 0 m/S 713 mmHg 32%
    10:00 +27°C° 0 mm 1 m/S 713 mmHg 29%
    11:00 +28°C° 0 mm 1 m/S 713 mmHg 26%
    12:00 +29°C° 0 mm 1 m/S 712 mmHg 24%
    13:00 +29°C° 0 mm 1 m/S 712 mmHg 22%
    14:00 +30°C° 0 mm 1 m/S 711 mmHg 20%
    15:00 +30°C° 0 mm 1 m/S 711 mmHg 22%
    16:00 +29°C° 0 mm 1 m/S 711 mmHg 23%
    17:00 +29°C° 0 mm 1 m/S 710 mmHg 24%
    18:00 +28°C° 0 mm 1 m/S 711 mmHg 28%
    19:00 +27°C° 0 mm 1 m/S 711 mmHg 31%
    20:00 +26°C° 0 mm 1 m/S 711 mmHg 35%
    21:00 +25°C° 0 mm 1 m/S 711 mmHg 36%
    22:00 +25°C° 0 mm 1 m/S 711 mmHg 37%
    23:00 +24°C° 0 mm 1 m/S 711 mmHg 39%
    Mehr zeigen